Girona, Spain

4:23 AM CEST on May 29, 2017 (GMT +0200)
Girona

Weather History for LEGE - November, 2013

Change the Weather History Date:

Monday, November 18, 2013

  Actual Average Record
Temperature  
Mean Temperature 52 °F -  
Max Temperature 53 °F 57 °F 69 °F (2006)
Min Temperature 51 °F 38 °F 24 °F (2007)
Degree Days  
Heating Degree Days 13    
Growing Degree Days 2 (Base 50)    
Moisture  
Dew Point 51 °F    
Average Humidity 95    
Maximum Humidity 100    
Minimum Humidity 82    
Precipitation  
Precipitation 0.79 in 0.08 in - ()
Sea Level Pressure  
Sea Level Pressure 29.61 in    
Wind  
Wind Speed 10 mph ()    
Max Wind Speed 23 mph    
Max Gust Speed 38 mph    
Visibility 5.2 miles    
Events Rain , Thunderstorm    
Averages and records for this station are not official NWS values.
T = Trace of Precipitation, MM = Missing Value Source: Averaged Metar Reports

Daily Weather History Graph

Daily Weather History Graph

Search for Another Location

Airport or City:

Trip Planner

Search our weather history database for the weather conditions in past years. The results will help you decide how hot, cold, wet, or windy it might be!

Date:

Astronomy

Nov. 18, 2013 Rise Set
Actual Time 7:42 AM CET 5:25 PM CET
Civil Twilight 7:12 AM CET 5:55 PM CET
Nautical Twilight 6:38 AM CET 6:29 PM CET
Astronomical Twilight 6:05 AM CET 7:02 PM CET
Moon 6:15 PM CET (11/18) 8:17 AM CET (11/18)
Length of Visible Light 10h 43m
Length of Day
9h 43m
Full, 99% of the Moon is Illuminated
Nov 18
Full
Nov 25
Last Quarter
Dec 3
New
Dec 9
First Quarter
Dec 17
Full

Hourly Weather History & Observations

Time (CET) Temp. Dew Point Humidity Pressure Visibility Wind Dir Wind Speed Gust Speed Precip Events Conditions
12:00 AM 55 °F 54 °F 97% 29.78 in - East 9.2 mph - -   Unknown Precipitation
12:00 AM 55.4 °F 53.6 °F 94% 29.80 in 6.2 mi East 8.1 mph - N/A   Scattered Clouds
12:30 AM 55.4 °F 53.6 °F 94% 29.77 in 6.2 mi ESE 2.3 mph - N/A   Scattered Clouds
1:00 AM 54 °F 53 °F 95% 29.77 in - NE 4.6 mph - -  
1:00 AM 53.6 °F 51.8 °F 94% 29.77 in 6.2 mi NE 2.3 mph - N/A   Scattered Clouds
1:30 AM 53.6 °F 51.8 °F 94% 29.77 in 6.2 mi ENE 5.8 mph - N/A   Scattered Clouds
2:00 AM 54 °F 53 °F 93% 29.75 in - NE 6.9 mph - -  
2:00 AM 53.6 °F 51.8 °F 94% 29.77 in 6.2 mi NE 5.8 mph - N/A   Scattered Clouds
2:30 AM 53.6 °F 51.8 °F 94% 29.74 in 6.2 mi NNE 9.2 mph - N/A   Scattered Clouds
3:00 AM 54 °F 53 °F 94% 29.74 in - North 10.4 mph - -  
4:00 AM 53.6 °F 53.6 °F 100% 29.68 in 5.0 mi NNE 15.0 mph - N/A Rain Light Rain
4:30 AM 53.6 °F 53.6 °F 100% 29.68 in 2.5 mi NNE 13.8 mph - N/A Rain , Thunderstorm Rain
5:00 AM 54 °F 54 °F 99% 29.68 in - NNE 15.0 mph - -   Unknown Precipitation
5:00 AM 53.6 °F 53.6 °F 100% 29.68 in 2.5 mi NNE 15.0 mph - N/A Rain , Thunderstorm Rain
5:30 AM 53.6 °F 53.6 °F 100% 29.68 in 3.1 mi NNE 23.0 mph 38.0 mph N/A Rain Light Rain
6:00 AM 53 °F 53 °F 100% 29.68 in - NNE 9.2 mph - -   Unknown Precipitation
6:00 AM 53.6 °F 53.6 °F 100% 29.68 in 5.6 mi NE 9.2 mph - N/A Rain Light Rain
6:30 AM 53.6 °F 53.6 °F 100% 29.68 in 5.6 mi NNE 8.1 mph - N/A Rain Light Rain
7:00 AM 52 °F 52 °F 99% 29.66 in 9 mi North 9.2 mph - - Rain Light Rain
7:00 AM 51.8 °F 51.8 °F 100% 29.65 in 6.2 mi North 8.1 mph - N/A Rain Light Rain
7:30 AM 51.8 °F 51.8 °F 100% 29.65 in 6.2 mi North 9.2 mph - N/A Rain Light Rain
8:00 AM 52 °F 52 °F 98% 29.67 in - North 6.9 mph - -   Unknown Precipitation
8:00 AM 51.8 °F 51.8 °F 100% 29.68 in 1.9 mi North 5.8 mph - N/A Rain Rain
8:30 AM 51.8 °F 51.8 °F 100% 29.68 in 1.9 mi North 5.8 mph - N/A Rain Rain
8:49 AM 51.8 °F 51.8 °F 100% 29.65 in 4.3 mi North 9.2 mph - N/A Rain Light Rain
9:00 AM 52 °F 52 °F 100% 29.65 in - North 10.4 mph - -   Unknown Precipitation
9:00 AM 51.8 °F 51.8 °F 100% 29.65 in 5.6 mi North 10.4 mph - N/A Rain Light Rain
9:30 AM 51.8 °F 51.8 °F 100% 29.65 in 3.7 mi North 15.0 mph - N/A Rain Rain
9:46 AM 51.8 °F 51.8 °F 100% 29.65 in 2.5 mi NNE 13.8 mph - N/A Rain Rain
10:00 AM 51.8 °F 51.8 °F 100% 29.65 in 3.7 mi NNE 15.0 mph - N/A Rain Light Rain
10:30 AM 51.8 °F 51.8 °F 100% 29.65 in 2.5 mi North 15.0 mph - N/A Rain Light Rain
11:00 AM 52 °F 52 °F 99% 29.64 in - NNE 12.7 mph - -   Unknown Precipitation
11:00 AM 51.8 °F 51.8 °F 100% 29.65 in 3.1 mi NNE 12.7 mph - N/A Rain Light Rain
11:30 AM 51.8 °F 51.8 °F 100% 29.62 in 3.1 mi North 15.0 mph - N/A Rain Light Rain
12:00 PM 51 °F 51 °F 100% 29.61 in - NNE 19.6 mph - -   Unknown Precipitation
12:00 PM 51.8 °F 51.8 °F 100% 29.62 in 1.2 mi NNE 17.3 mph - N/A Rain Heavy Rain Showers
12:30 PM 51.8 °F 51.8 °F 100% 29.62 in 5.0 mi NNE 16.1 mph - N/A Rain Light Rain
1:00 PM 51 °F 51 °F 100% 29.61 in 5 mi NNE 16.1 mph - - Rain Rain
1:00 PM 51.8 °F 51.8 °F 100% 29.62 in 5.0 mi NNE 15.0 mph - N/A Rain Light Rain
1:30 PM 51.8 °F 51.8 °F 100% 29.59 in 5.0 mi NNE 15.0 mph - N/A Rain Light Rain
2:00 PM 51 °F 51 °F 100% 29.57 in - NNE 17.3 mph - -   Unknown Precipitation
2:00 PM 51.8 °F 50.0 °F 94% 29.56 in 5.0 mi NNE 16.1 mph - N/A Rain Light Rain
2:30 PM 51.8 °F 50.0 °F 94% 29.56 in 5.0 mi NE 17.3 mph - N/A   Overcast
3:00 PM 52 °F 50 °F 90% 29.56 in - NE 17.3 mph - -  
3:00 PM 51.8 °F 50.0 °F 94% 29.56 in 5.6 mi NE 17.3 mph - N/A   Overcast
3:30 PM 51.8 °F 48.2 °F 88% 29.56 in 5.6 mi NNE 17.3 mph - N/A   Mostly Cloudy
4:00 PM 51.8 °F 48.2 °F 88% 29.56 in 6.2 mi NNE 17.3 mph - N/A   Light Drizzle
4:30 PM 51.8 °F 48.2 °F 88% 29.56 in 6.2 mi NNE 18.4 mph - N/A   Mostly Cloudy
5:00 PM 52 °F 49 °F 87% 29.55 in - NNE 15.0 mph - -  
5:00 PM 51.8 °F 48.2 °F 88% 29.56 in 6.2 mi NNE 13.8 mph - N/A   Overcast
5:30 PM 51.8 °F 48.2 °F 88% 29.56 in 6.2 mi NNE 16.1 mph - N/A Rain Light Rain
6:00 PM 51 °F 49 °F 92% 29.53 in - NNE 18.4 mph - -   Unknown Precipitation
6:00 PM 51.8 °F 48.2 °F 88% 29.53 in 6.2 mi NNE 17.3 mph - N/A Rain Light Rain
6:30 PM 51.8 °F 48.2 °F 88% 29.53 in 6.2 mi NNE 13.8 mph - N/A Rain , Thunderstorm Rain Showers
7:00 PM 51 °F 50 °F 94% 29.50 in 6 mi NNE 9.2 mph - - Rain Heavy Rain Showers
7:00 PM 51.8 °F 50.0 °F 94% 29.50 in 6.2 mi North 8.1 mph - N/A Rain , Thunderstorm Rain Showers
7:30 PM 51.8 °F 48.2 °F 88% 29.47 in 6.2 mi North 10.4 mph - N/A Rain , Thunderstorm Rain
8:00 PM 52 °F 49 °F 86% 29.47 in - North 13.8 mph - -   Unknown Precipitation
8:00 PM 51.8 °F 48.2 °F 88% 29.47 in 6.2 mi North 12.7 mph - N/A Rain , Thunderstorm Rain
8:30 PM 51.8 °F 48.2 °F 88% 29.47 in 6.2 mi NNE 12.7 mph - N/A Rain , Thunderstorm Light Rain
9:00 PM 52 °F 49 °F 85% 29.48 in - NNE 13.8 mph - -   Unknown Precipitation
9:00 PM 51.8 °F 48.2 °F 88% 29.47 in 6.2 mi NNE 13.8 mph - N/A Rain , Thunderstorm Light Rain
9:30 PM 51.8 °F 48.2 °F 88% 29.47 in 6.2 mi NE 13.8 mph - N/A Rain Light Rain
10:00 PM 51.8 °F 50.0 °F 94% 29.47 in 6.2 mi NNE 11.5 mph - N/A Rain Rain
10:30 PM 51.8 °F 50.0 °F 94% 29.47 in 6.2 mi NNE 11.5 mph - N/A Rain Light Rain
11:00 PM 53 °F 49 °F 84% 29.47 in - NNE 16.1 mph - -   Unknown Precipitation
11:00 PM 53.6 °F 48.2 °F 82% 29.47 in 6.2 mi NNE 16.1 mph 29.9 mph N/A Rain Light Rain
11:30 PM 53.6 °F 48.2 °F 82% 29.47 in 6.2 mi NNE 17.3 mph - N/A   Overcast